Location: Be Tobo
(6.6442°N, 10.6239°W)
Time: 00:35:54
(UTC+00:00)

Intelsat 5-1 Rocket - Pass Details

Date: 18 September 2020
Orbit: 310 x 7605 km, 23.9° (Epoch: 20 October)

Event Time Altitude Azimuth Distance (km) Brightness Sun altitude
Rises 19:46:12 0° 249° (WSW) 10,492 9.5 -17.2°
Reaches altitude 10° 19:56:26 10° 251° (WSW) 8,150 8.7 -19.7°
Maximum altitude 20:18:51 66° 331° (NNW) 1,932 4.5 -25.2°
Enters shadow 20:22:52 33° 43° (NE) 2,029 4.3 -26.2°
